Lafayette, IN

10:01 AM EDT on June 23, 2017 (GMT -0400)
Purdue Univ

Weather History for KLAF - July, 2014

Change the Weather History Date:

Monday, July 7, 2014

  Actual Average Record
Temperature  
Mean Temperature 79 °F 75 °F  
Max Temperature 86 °F 85 °F 103 °F (2012)
Min Temperature 72 °F 64 °F 49 °F (1983)
Degree Days  
Heating Degree Days 0 0  
Month to date heating degree days 1 0  
Since 1 June heating degree days 7 22  
Since 1 July heating degree days 1 0  
Cooling Degree Days 14 10  
Month to date cooling degree days 34 70  
Year to date cooling degree days 356 364  
Since 1 June cooling degree days 259 287  
Growing Degree Days 29 (Base 50)    
Moisture  
Dew Point 71 °F    
Average Humidity 77    
Maximum Humidity 93    
Minimum Humidity 61    
Precipitation  
Precipitation 0.03 in 0.15 in 0.70 in (1998)
Month to date precipitation 0.78 0.96  
Year to date precipitation 18.08 19.08  
Sea Level Pressure  
Sea Level Pressure 29.78 in    
Wind  
Wind Speed 8 mph (SW)    
Max Wind Speed 14 mph    
Max Gust Speed 21 mph    
Visibility 9 miles    
Events Rain , Thunderstorm    
T = Trace of Precipitation, MM = Missing Value Source: NWS Daily Summary

Daily Weather History Graph

Daily Weather History Graph

Search for Another Location

Airport or City:

Trip Planner

Search our weather history database for the weather conditions in past years. The results will help you decide how hot, cold, wet, or windy it might be!

Date:

Astronomy

Jul. 07, 2014 Rise Set
Actual Time 6:24 AM EDT 9:20 PM EDT
Civil Twilight 5:52 AM EDT 9:53 PM EDT
Nautical Twilight 5:10 AM EDT 10:34 PM EDT
Astronomical Twilight 4:22 AM EDT 11:22 PM EDT
Moon 4:22 PM EDT (7/7) 2:18 AM EDT (7/7)
Length of Visible Light 16h 01m
Length of Day
14h 55m
Waxing Gibbous, 72% of the Moon is Illuminated
Jul 7
Waxing Gibbous
Jul 12
Full
Jul 18
Last Quarter
Jul 26
New
Aug 3
First Quarter

Hourly Weather History & Observations

Time (EDT) Temp. Heat Index Dew Point Humidity Pressure Visibility Wind Dir Wind Speed Gust Speed Precip Events Conditions
12:54 AM 73.0 °F - 66.9 °F 81% 29.82 in 10.0 mi SSW 9.2 mph - N/A   Clear
1:54 AM 73.9 °F - 66.9 °F 79% 29.81 in 10.0 mi SW 9.2 mph 17.3 mph N/A   Clear
2:54 AM 73.0 °F - 68.0 °F 84% 29.78 in 10.0 mi SSW 8.1 mph 17.3 mph N/A   Scattered Clouds
3:54 AM 72.0 °F - 68.0 °F 87% 29.80 in 10.0 mi WSW 9.2 mph - N/A   Clear
4:54 AM 72.0 °F - 69.1 °F 91% 29.79 in 9.0 mi SW 11.5 mph - N/A   Clear
5:54 AM 72.0 °F - 69.1 °F 91% 29.78 in 9.0 mi SW 8.1 mph - N/A   Partly Cloudy
6:54 AM 73.0 °F - 69.1 °F 87% 29.78 in 8.0 mi SW 8.1 mph - N/A   Overcast
7:06 AM 72.0 °F - 69.1 °F 91% 29.79 in 9.0 mi SW 10.4 mph - N/A Thunderstorm Thunderstorm
7:20 AM 72.0 °F - 69.1 °F 91% 29.79 in 2.5 mi WSW 8.1 mph - 0.03 in Rain , Thunderstorm Thunderstorms and Rain
7:37 AM 72.0 °F - 69.1 °F 91% 29.80 in 5.0 mi SW 8.1 mph - 0.03 in   Overcast
7:54 AM 72.0 °F - 69.1 °F 91% 29.78 in 5.0 mi SSW 9.2 mph - 0.03 in   Overcast
8:54 AM 72.0 °F - 69.1 °F 91% 29.79 in 7.0 mi West 6.9 mph - N/A   Overcast
9:05 AM 72.0 °F - 69.1 °F 91% 29.80 in 8.0 mi West 4.6 mph - N/A   Overcast
9:54 AM 73.0 °F - 70.0 °F 90% 29.79 in 8.0 mi WSW 11.5 mph 17.3 mph N/A   Overcast
10:54 AM 75.9 °F - 70.0 °F 82% 29.78 in 10.0 mi WSW 10.4 mph - N/A   Overcast
11:54 AM 77.0 °F - 71.1 °F 82% 29.78 in 10.0 mi WSW 8.1 mph - N/A   Overcast
12:54 PM 78.1 °F - 72.0 °F 81% 29.78 in 9.0 mi WSW 9.2 mph - N/A   Overcast
1:51 PM 80.6 °F 85.4 °F 73.4 °F 79% 29.79 in 9.0 mi WSW 8.1 mph - N/A   Overcast
1:54 PM 81.0 °F 85.8 °F 73.0 °F 77% 29.77 in 8.0 mi SW 8.1 mph - N/A   Overcast
2:54 PM 82.9 °F 89.4 °F 73.9 °F 74% 29.76 in 9.0 mi SW 10.4 mph - N/A   Overcast
3:31 PM 84.0 °F 91.2 °F 73.9 °F 72% 29.76 in 10.0 mi SW 6.9 mph - N/A   Mostly Cloudy
3:45 PM 84.0 °F 90.2 °F 73.0 °F 69% 29.76 in 10.0 mi Variable 6.9 mph - N/A   Mostly Cloudy
3:52 PM 84.2 °F 90.9 °F 73.4 °F 70% 29.75 in 10.0 mi SW 6.9 mph - N/A   Mostly Cloudy
3:54 PM 84.0 °F 90.2 °F 73.0 °F 69% 29.74 in 10.0 mi SSW 8.1 mph - N/A   Mostly Cloudy
4:54 PM 84.0 °F 89.6 °F 72.0 °F 67% 29.73 in 10.0 mi Variable 6.9 mph - N/A   Clear
5:54 PM 86.0 °F 91.5 °F 71.1 °F 61% 29.74 in 10.0 mi WSW 10.4 mph - N/A   Scattered Clouds
6:54 PM 84.0 °F 88.4 °F 70.0 °F 63% 29.76 in 10.0 mi WSW 9.2 mph - N/A   Clear
7:54 PM 80.1 °F 84.5 °F 73.9 °F 81% 29.76 in 10.0 mi SW 12.7 mph 18.4 mph N/A   Mostly Cloudy
8:54 PM 77.0 °F - 72.0 °F 84% 29.76 in 10.0 mi West 6.9 mph - N/A   Clear
9:54 PM 75.0 °F - 72.0 °F 90% 29.75 in 10.0 mi SW 4.6 mph - N/A   Clear
10:54 PM 73.0 °F - 71.1 °F 93% 29.76 in 10.0 mi WSW 5.8 mph - N/A   Clear
11:47 PM 73.0 °F - 72.0 °F 96% 29.79 in 7.0 mi Calm Calm - N/A   Scattered Clouds
11:54 PM 73.0 °F - 72.0 °F 96% 29.77 in 7.0 mi Calm Calm - N/A   Scattered Clouds